Theta_e
319 319 319 318 316 317 320 324 321 325 324 324 327 326 330 332 334 333 334 336 334 335 334 336 333 335 331 332 331 331 332 333 332 332 333 332 333 331 331 331 331 331 331 332 332 332 330 327 327
318 319 320 312 317 320 318 316 324 323 328 326 323 328 333 337 332 333 335 336 334 334 336 334 333 334 331 331 330 331 331 332 331 332 330 330 330 329 330 330 330 330 330 330 331 331 331 326 326
317 318 316 315 314 319 317 319 322 321 326 319 328 327 333 335 331 334 336 336 337 336 335 333 334 334 331 330 330 330 330 332 330 330 330 328 329 329 328 328 329 329 330 330 329 329 329 325 324
317 316 312 317 321 319 316 320 319 320 318 323 326 333 330 331 334 334 336 338 336 334 333 332 334 333 331 328 330 329 331 332 329 329 330 329 327 328 328 327 328 328 329 329 328 327 325 325 323
316 314 316 318 320 318 313 320 318 320 318 321 323 333 333 332 332 335 337 335 333 332 331 331 331 334 333 326 329 329 330 330 329 328 328 328 327 327 327 328 328 327 327 328 328 324 323 323 322
316 315 318 318 318 317 318 319 318 319 319 325 329 332 332 333 334 335 334 333 330 328 330 331 329 334 334 329 324 326 324 328 327 327 328 327 328 326 327 327 327 326 327 327 327 323 323 323 321
317 319 319 316 319 319 322 315 317 318 322 322 326 331 329 333 334 333 332 332 327 325 329 331 330 333 334 331 326 321 320 322 327 326 326 325 324 326 324 323 326 326 326 325 323 322 321 321 321
314 316 318 317 319 318 314 316 314 316 317 322 326 329 333 330 333 332 333 330 326 326 327 331 331 334 334 333 329 325 320 318 322 325 323 326 326 326 325 323 320 323 321 321 322 322 321 321 321
312 319 319 320 318 319 313 315 312 312 319 317 320 325 326 333 334 334 332 330 329 327 329 331 330 332 333 333 330 328 323 319 319 320 321 323 325 325 325 322 319 319 319 319 320 320 319 320 321
319 318 318 316 316 316 314 314 311 316 318 321 327 326 329 334 334 332 331 330 331 329 329 329 328 332 334 333 331 329 326 321 318 318 319 321 325 325 324 322 320 318 317 318 317 317 317 318 321
314 322 317 317 314 312 314 314 310 313 317 316 324 326 331 333 332 332 331 331 329 325 326 327 326 327 334 333 331 330 328 323 319 317 317 318 322 325 324 322 320 319 318 317 317 317 320 320 320
320 314 316 319 312 311 313 311 312 312 314 311 319 326 330 332 332 332 331 331 331 327 323 324 325 324 324 332 331 329 328 325 322 318 318 317 318 321 323 322 321 318 316 318 317 318 319 318 319
315 313 313 312 310 310 311 311 311 310 310 316 325 327 329 331 332 333 333 333 332 329 324 323 324 324 323 322 327 328 328 326 324 321 323 321 321 321 321 320 319 318 315 315 316 316 317 317 316
314 314 313 312 311 310 312 312 311 312 314 324 327 327 327 330 331 332 333 333 332 331 326 323 323 323 323 322 322 323 326 326 325 323 323 324 324 323 322 320 319 318 318 319 319 317 317 317 316
314 314 315 314 311 312 311 312 311 310 315 325 326 326 326 327 329 331 333 333 334 333 331 325 323 323 323 322 322 322 322 325 325 324 324 324 325 324 323 321 321 321 321 321 320 320 319 317 317
318 318 318 314 310 311 311 313 312 308 313 323 325 323 324 324 328 329 331 333 334 334 333 331 328 326 325 327 329 327 325 324 324 325 327 328 328 327 326 323 321 322 322 322 321 321 320 319 318
322 324 321 322 310 311 310 312 312 306 312 315 323 323 324 324 325 328 329 331 333 334 334 334 333 332 330 331 331 330 330 329 329 329 329 329 327 328 328 327 324 323 322 322 322 321 321 320 319
322 327 322 325 316 309 310 309 310 308 308 311 318 321 322 323 325 328 329 329 331 333 334 334 334 333 332 332 332 331 330 330 329 328 327 327 327 327 326 325 326 324 323 323 322 322 321 321 320
315 322 328 314 318 311 312 313 311 309 305 305 308 314 320 321 324 326 328 329 329 330 332 334 334 334 333 332 331 331 330 330 329 328 328 328 328 327 327 326 325 324 325 325 323 322 322 322 321
309 314 317 316 309 309 310 309 309 306 306 305 306 307 311 314 311 312 323 326 328 329 330 332 333 334 334 333 332 331 331 331 330 328 328 328 328 329 328 327 327 326 326 326 325 323 322 322 321
310 310 309 313 309 308 308 310 310 308 305 305 303 304 304 307 311 304 307 315 323 326 329 330 331 333 334 334 333 332 331 331 331 329 327 328 329 329 330 329 328 327 327 327 327 326 324 322 321
313 309 310 309 309 310 307 311 310 309 306 305 306 302 303 302 301 301 304 305 309 321 326 327 329 331 332 333 333 333 332 331 332 331 327 325 326 328 328 327 327 328 328 328 328 326 324 322 321
313 311 310 310 311 307 306 306 307 304 305 306 305 303 303 302 303 302 302 305 306 309 317 322 326 328 330 332 332 333 332 332 332 331 328 325 324 324 325 327 328 328 328 327 327 326 325 324 321
309 309 308 306 308 313 309 307 307 306 308 306 304 304 304 304 300 300 303 304 305 309 316 320 323 327 329 331 332 332 332 331 331 331 328 325 324 325 326 326 327 328 327 326 326 325 324 323 322
310 313 313 312 311 315 305 305 310 307 303 304 305 304 303 301 300 301 304 306 307 310 313 316 320 325 328 330 331 331 331 331 332 331 327 325 326 327 326 327 327 327 326 325 325 324 322 320 318
309 311 312 312 310 312 302 307 311 304 304 301 301 300 300 299 300 303 304 306 308 310 311 311 313 317 322 327 329 330 329 330 331 331 330 326 327 326 325 326 326 325 324 322 322 320 317 315 315
306 308 307 306 296 304 304 303 303 303 303 302 303 303 302 301 302 304 304 306 307 310 312 311 309 309 310 311 317 327 328 328 330 331 330 327 326 324 324 323 322 320 319 318 316 314 310 308 305
306 306 309 306 305 304 305 304 308 305 306 304 303 304 303 302 303 303 303 304 307 310 312 312 311 310 309 309 308 309 319 324 327 328 327 325 323 323 321 319 316 314 312 311 309 305 300 299 296
305 306 306 307 307 309 309 307 301 305 305 305 304 304 304 304 303 303 302 304 306 309 311 312 312 312 313 313 313 313 319 322 324 326 323 320 317 317 314 313 312 310 307 302 299 296 294 294 293
306 307 308 309 308 304 306 308 302 301 302 302 302 304 304 304 303 301 302 302 303 306 309 310 310 312 313 314 315 317 319 321 321 319 315 314 314 312 313 310 305 301 297 295 294 294 293 293 292
Wind_Speed
8 7 2 5 4 5 0 2 1 3 2 2 3 4 5 4 3 3 6 6 20 19 16 14 13 13 15 17 15 14 16 16 17 16 14 15 17 17 16 15 16 17 18 18 19 19 19 21 20
6 5 4 2 4 3 4 2 4 2 5 6 5 3 4 3 2 6 9 19 20 19 17 15 14 14 15 16 17 17 17 17 16 18 17 16 16 17 17 17 17 17 17 18 18 17 18 19 17
5 6 4 4 3 3 4 3 3 2 7 1 3 4 3 3 2 14 14 23 21 19 17 16 16 15 15 17 17 18 17 16 14 17 17 16 17 17 17 17 17 18 18 17 17 17 16 16 16
3 6 4 4 2 2 4 3 4 5 1 3 3 6 2 2 15 10 26 24 22 20 17 17 16 15 15 17 16 16 16 17 16 15 15 16 15 17 17 16 16 17 16 15 15 15 16 15 15
7 3 4 3 3 3 3 3 6 2 3 3 1 3 2 4 7 20 26 24 23 20 18 18 16 17 15 15 16 14 16 15 16 14 14 14 15 15 15 15 15 14 14 14 14 14 13 11 13
4 2 4 1 4 4 2 5 5 2 0 3 5 5 3 5 20 26 25 24 21 21 19 17 18 18 15 14 14 13 13 13 14 12 13 13 13 13 13 13 13 13 13 13 13 13 12 12 13
5 4 2 3 3 3 3 7 4 4 3 3 9 5 2 6 21 26 24 22 20 19 19 18 19 20 17 15 13 12 11 13 13 12 12 12 12 14 9 12 11 11 11 12 12 12 12 11 10
4 4 5 2 2 3 2 4 5 6 4 2 2 5 4 8 24 25 23 20 20 19 19 19 19 20 20 16 13 12 11 11 12 11 12 12 11 12 10 8 9 10 11 11 10 9 8 9 9
2 3 4 4 4 4 1 3 1 2 6 1 2 5 2 25 26 25 21 20 19 19 19 19 18 20 20 19 15 12 11 11 11 11 11 10 11 10 8 8 8 9 10 10 9 7 5 5 6
4 3 7 3 2 3 2 2 6 4 4 2 1 4 18 28 24 20 20 18 19 22 21 20 19 19 19 19 17 14 12 11 11 10 10 9 9 9 7 7 7 6 7 7 6 5 4 3 3
3 5 4 5 2 1 5 2 6 7 3 8 9 8 17 21 20 20 19 19 24 27 25 23 21 19 19 18 18 15 13 12 11 10 10 10 9 9 7 5 5 3 3 3 4 3 2 2 2
4 5 5 3 1 4 3 4 4 7 6 4 9 17 19 20 23 23 21 19 26 26 26 24 23 21 20 18 18 17 16 14 12 11 10 9 9 8 7 5 3 1 2 3 3 3 0 2 2
4 5 5 2 7 5 2 8 7 7 2 3 11 15 16 19 21 21 24 27 28 28 27 26 24 23 21 20 18 17 17 14 12 11 10 9 8 7 6 6 5 3 2 1 3 3 3 4 4
6 5 2 4 4 2 5 3 2 5 6 6 11 14 12 17 22 18 22 28 29 29 29 28 26 24 22 21 19 17 17 15 14 12 11 8 8 7 6 6 6 5 3 3 2 3 5 6 6
4 1 3 6 4 4 2 6 8 4 4 8 9 8 9 13 19 25 28 28 33 31 29 29 28 26 24 22 20 19 17 16 15 13 12 11 9 9 7 7 7 5 5 5 5 5 6 6 7
4 2 6 3 6 2 6 9 11 6 9 9 9 7 8 9 23 26 26 30 32 31 30 28 28 28 26 24 21 20 18 17 16 14 13 12 11 10 10 9 8 7 8 8 8 8 8 9 10
2 4 9 6 6 4 6 6 8 7 8 9 9 9 9 8 11 24 29 32 32 32 31 30 29 29 28 25 23 21 19 17 16 15 14 13 11 11 10 10 9 9 9 9 9 9 10 11 12
6 11 4 13 5 5 6 8 10 4 7 11 9 8 9 10 16 27 31 30 33 33 34 32 31 32 30 28 27 23 22 20 17 17 17 16 15 14 12 10 11 10 11 12 11 11 11 13 14
5 4 15 4 7 5 11 14 10 7 5 8 8 9 12 12 18 19 27 30 30 33 35 36 34 35 34 33 29 27 27 24 20 19 18 18 17 16 15 13 11 11 11 12 12 13 13 15 14
4 4 4 4 3 4 4 10 9 6 6 8 11 9 12 8 8 12 25 28 34 35 37 37 37 37 37 36 34 30 30 28 25 21 21 20 19 19 18 17 16 15 15 15 15 14 14 14 13
5 4 2 4 1 3 2 9 10 7 6 6 8 9 6 11 14 8 18 28 30 36 39 39 39 39 39 38 34 31 26 27 24 22 20 23 23 22 20 19 20 19 19 19 19 17 16 15 13
8 6 3 2 2 4 2 5 12 11 11 10 13 9 12 11 9 8 17 24 32 39 39 39 38 39 40 39 38 35 30 25 30 26 21 19 21 20 19 20 20 21 20 20 21 18 17 16 17
4 7 6 4 3 4 4 4 5 6 10 12 10 11 12 13 14 13 17 27 28 34 35 37 38 38 38 39 39 39 31 32 29 23 21 18 16 17 17 17 17 18 18 15 12 10 10 10 12
9 6 6 5 3 3 9 6 5 8 13 4 8 11 13 15 11 10 13 18 19 23 25 27 32 35 35 36 36 36 35 33 27 23 21 20 17 15 14 13 12 12 10 8 7 5 5 4 5
12 14 2 2 2 12 3 5 17 7 7 7 10 12 10 7 7 8 9 16 20 22 22 23 26 30 30 31 33 34 33 32 30 27 23 23 18 16 14 12 12 11 9 8 6 5 5 3 3
12 15 7 7 4 7 4 8 10 11 10 7 8 7 7 8 8 12 12 18 20 20 20 21 23 24 26 29 31 29 30 31 29 28 22 23 20 16 13 13 12 10 8 7 7 6 7 6 3
5 11 5 5 1 3 5 9 8 9 10 7 10 7 10 8 7 8 9 19 21 20 20 20 20 21 23 24 25 28 27 28 28 27 23 22 19 16 16 14 11 11 10 7 7 6 6 5 5
9 10 4 1 2 5 5 5 9 3 11 11 9 12 10 7 7 7 8 14 15 16 16 16 16 17 19 21 24 25 26 26 25 25 24 23 22 19 16 14 13 11 10 9 8 8 9 8 9
3 5 4 4 6 6 8 8 8 11 11 12 13 10 6 8 9 6 5 13 14 14 14 14 15 15 15 16 18 21 24 26 26 27 26 25 23 19 16 14 13 12 12 11 11 12 11 9 9
2 7 15 6 13 5 2 11 3 8 8 7 10 6 6 7 6 6 9 11 12 14 15 15 15 15 14 15 17 21 25 28 29 29 28 24 22 19 17 16 16 16 16 14 12 11 9 8 8
Wind_Direction
349 353 19 42 51 62 261 250 288 126 107 338 69 129 159 79 130 190 151 147 148 141 140 134 126 122 115 114 115 115 109 103 90 93 99 96 94 87 88 97 93 95 93 89 87 84 82 77 74
354 358 43 77 83 58 272 266 214 175 142 125 67 64 42 83 85 122 124 149 149 142 142 141 136 123 116 118 116 111 111 104 96 95 99 98 96 94 95 96 95 98 97 93 91 88 89 82 78
13 37 75 89 107 158 228 209 181 85 147 66 104 65 126 126 77 146 149 151 149 145 145 143 139 127 120 121 118 113 114 110 110 99 103 103 99 98 96 94 95 96 99 95 92 95 88 83 81
35 26 38 79 174 232 203 188 145 125 244 73 138 67 15 274 148 164 153 152 150 146 147 145 142 133 122 124 116 122 115 113 109 106 105 106 102 103 102 100 100 99 102 98 93 90 94 85 79
54 54 54 55 296 266 251 160 137 160 152 108 307 126 53 130 144 152 157 157 154 149 151 150 148 140 134 125 129 126 128 125 117 116 108 113 107 107 107 103 102 105 105 101 93 96 94 90 85
51 80 56 263 273 285 259 152 140 127 107 163 84 100 173 173 151 159 162 162 160 154 156 158 155 149 142 131 130 130 133 134 131 128 115 116 120 114 111 109 106 105 103 102 95 94 93 93 88
97 73 264 192 266 305 192 145 152 151 144 227 151 104 299 186 164 162 166 166 164 161 162 162 160 156 152 142 137 135 134 136 133 132 122 111 108 119 120 106 106 103 107 102 103 97 91 87 79
101 93 146 262 256 274 207 169 132 148 189 99 174 169 199 199 170 164 167 168 166 165 169 167 164 163 159 153 147 141 140 142 147 145 137 133 135 133 127 103 105 110 113 119 119 109 95 79 71
107 90 155 200 170 266 101 184 48 119 119 209 179 157 216 167 168 161 160 165 168 171 174 174 173 173 168 162 158 155 151 149 150 150 149 142 144 141 130 105 110 108 119 125 130 126 107 95 75
101 130 193 197 209 307 273 214 173 143 129 235 188 46 143 158 161 164 168 174 171 178 182 183 179 177 177 171 167 165 161 158 158 158 157 153 151 157 144 120 115 119 121 134 135 131 113 100 68
165 188 184 231 251 106 291 260 180 133 216 211 194 159 154 163 171 177 185 189 186 184 185 187 185 183 185 184 175 175 173 171 168 167 164 166 163 165 172 156 132 129 151 151 154 140 96 47 23
159 202 179 231 341 16 310 310 230 194 215 257 196 165 158 171 182 186 192 193 192 191 191 190 189 191 191 193 193 187 184 183 181 177 177 177 174 177 184 187 190 210 221 214 197 190 231 357 339
188 180 185 283 342 299 275 241 236 236 275 70 132 159 176 180 186 191 191 200 196 196 196 196 196 196 196 199 199 201 196 194 190 190 189 191 194 195 201 211 222 233 245 239 222 252 287 327 332
201 176 159 233 252 307 273 261 167 258 134 127 153 180 183 186 185 187 195 196 205 203 201 199 201 200 202 206 208 210 207 202 200 203 207 215 220 223 225 231 232 234 236 233 256 278 292 312 317
95 174 216 230 167 257 175 280 214 189 143 165 186 191 189 193 184 197 202 199 207 209 206 203 204 205 206 209 215 216 215 215 215 214 214 220 226 230 240 246 251 257 262 270 283 286 296 305 308
131 132 224 188 154 258 133 274 270 171 158 194 203 205 205 199 200 204 210 211 213 212 210 208 208 210 209 211 214 217 218 221 224 224 226 229 233 238 247 255 259 264 270 273 283 290 298 302 305
249 207 217 298 205 142 169 270 269 170 188 201 205 209 210 226 223 212 216 217 219 218 217 210 212 215 214 215 215 217 219 222 225 227 228 230 243 249 259 264 263 265 266 267 275 283 291 298 301
185 208 216 224 213 194 215 239 282 260 200 217 205 209 220 219 227 219 217 216 222 223 223 221 216 219 219 219 217 220 222 224 228 236 240 241 240 240 246 254 264 264 272 273 273 278 283 288 292
158 180 233 250 213 201 237 233 238 251 240 256 232 216 225 226 233 228 224 220 220 224 224 224 222 221 219 218 218 221 223 226 233 237 242 244 243 241 240 247 250 257 265 269 269 272 277 286 293
160 182 246 296 301 189 279 252 241 213 231 218 226 234 224 225 232 220 225 220 217 223 224 224 223 225 224 223 222 218 220 226 234 237 245 241 242 243 242 244 247 249 256 263 265 264 272 277 289
216 181 155 241 293 249 342 259 245 249 228 230 231 222 220 226 232 222 226 226 222 222 225 224 226 227 227 225 220 219 223 226 229 231 247 247 248 246 245 250 251 252 256 258 262 262 261 269 289
214 148 129 45 311 245 202 278 227 226 232 220 228 215 226 224 229 226 226 227 227 227 227 226 227 228 229 224 219 214 213 216 232 238 235 251 251 251 253 257 256 257 258 257 263 268 269 265 270
170 147 166 159 101 359 230 267 242 167 238 235 227 223 229 228 222 224 219 233 232 227 224 226 226 227 228 226 222 220 216 228 236 236 225 240 247 251 250 254 255 257 257 264 263 269 277 279 273
142 59 32 41 109 246 216 196 230 213 229 231 228 230 224 231 222 224 225 227 225 218 217 219 220 223 224 224 222 222 221 224 223 227 216 235 226 229 238 244 240 241 237 229 233 242 246 256 276
163 153 174 213 219 236 148 167 243 261 238 229 218 235 237 233 196 196 200 196 201 202 205 208 209 216 217 219 220 222 223 225 225 229 225 229 210 216 225 225 225 212 214 211 205 186 174 171 162
191 183 160 197 223 251 82 227 247 218 249 222 256 259 275 241 211 201 193 194 195 195 198 201 200 205 211 217 220 220 223 225 226 229 227 217 204 205 208 211 207 190 179 173 177 176 157 136 159
195 208 187 108 32 50 206 272 300 249 265 255 252 256 247 238 206 198 178 185 186 189 194 200 202 203 209 214 216 217 218 220 223 224 220 205 190 177 167 164 167 158 153 155 148 139 127 120 101
172 158 174 145 206 258 273 265 219 240 226 239 241 235 232 199 198 185 180 186 181 188 194 197 199 210 212 217 219 214 210 212 210 207 195 181 168 164 166 166 163 162 157 155 146 132 118 110 94
149 173 196 166 164 217 254 258 213 215 223 236 238 254 263 197 173 180 177 186 181 181 189 191 188 194 197 198 203 202 195 198 193 184 173 168 164 165 165 164 158 153 147 138 134 121 110 101 91
231 190 198 198 218 230 186 259 215 245 263 276 273 228 172 157 166 171 175 182 178 180 183 184 177 177 181 180 180 178 180 178 174 168 166 166 164 159 162 161 154 146 140 129 122 118 111 96 80